SCP
0 0 0 0 0 0 0 0 0 0 0 0 0 0 0 0 0 0 0 0 0 0 0 0 0 0 0 0 0 0 0 0 0 0 0 0 0 0 0 0 0 0 0
0 0 0 0 0 0 0 0 0 0 0 0 0 0 0 0 0 0 0 0 0 0 0 0 0 0 0 0 0 0 0 0 0 0 0 0 0 0 0 0 0 0 0
0 0 0 0 0 0 0 0 0 0 0 0 0 0 0 0 0 0 0 0 0 0 0 0 0 0 0 0 0 0 0 0 0 0 0 0 0 0 0 0 0 0 0
0 0 0 0 0 0 0 0 0 0 0 0 0 0 0 0 0 0 0 0 0 0 0 0 0 0 0 0 0 0 0 0 0 0 0 0 0 0 0 0 0 0 0
0 0 0 0 0 0 0 0 0 0 0 0 0 0 0 0 0 0 0 0 0 0 0 0 0 0 0 0 0 0 0 0 0 0 0 0 0 0 0 0 0 0 0
0 0 0 0 0 0 0 0 0 0 0 0 0 0 0 0 0 0 0 0 0 0 0 0 0 0 0 0 0 0 0 0 0 0 0 0 0 0 0 0 0 0 0
0 0 0 0 0 0 0 0 0 0 0 0 0 0 0 0 0 0 0 0 0 0 0 0 0 0 0 0 0 0 0 0 0 0 0 0 0 0 0 0 0 0 0
0 0 0 0 0 0 0 0 0 0 0 0 0 0 0 0 0 0 0 0 0 0 0 0 0 0 0 0 0 0 0 0 0 0 0 0 0 0 0 0 0 0 0
0 0 0 0 0 0 0 0 0 0 0 0 0 0 0 0 0 0 0 0 0 0 0 0 0 0 0 0 0 0 0 0 0 0 0 0 0 0 0 0 0 0 0
0 0 0 0 0 0 0 0 0 0 0 0 0 0 0 0 0 0 0 0 0 0 0 0 0 0 0 0 0 0 0 0 0 0 0 0 0 0 0 0 0 0 0
0 0 0 0 0 0 0 0 0 0 0 0 0 0 0 0 0 0 0 0 0 0 0 0 0 0 0 0 0 0 0 0 0 0 0 0 0 0 0 0 0 0 0
0 0 0 0 0 0 0 0 0 0 0 0 0 0 0 0 0 0 0 0 0 0 0 0 0 0 0 0 0 0 0 0 0 0 0 0 0 0 0 0 0 0 0
0 0 0 0 0 0 0 0 0 0 0 0 0 0 0 0 0 0 0 0 0 0 0 0 0 0 0 0 0 0 0 0 0 0 0 0 0 0 0 0 0 0 0
0 0 0 0 0 0 0 0 0 0 0 0 0 0 0 0 0 0 0 0 0 0 0 0 0 0 0 0 0 0 0 0 0 0 0 0 0 0 0 0 0 0 0
0 0 0 0 0 0 0 0 0 0 0 0 0 0 0 0 0 0 0 0 0 0 0 0 0 0 0 0 0 0 0 0 0 0 0 0 0 0 0 0 0 0 0
0 0 0 0 0 0 0 0 0 0 0 0 0 0 0 0 0 0 0 0 0 0 0 0 0 0 0 0 0 0 0 0 0 0 0 0 0 0 0 0 0 0 0
0 0 0 0 0 0 0 0 0 0 0 0 0 0 0 0 0 0 0 0 0 0 0 0 0 0 0 0 0 0 0 0 0 0 0 0 0 0 0 0 0 0 0
0 0 0 0 0 0 0 0 0 0 0 0 0 0 0 0 0 0 0 0 0 0 0 0 0 0 0 0 0 0 0 0 0 0 0 0 0 0 0 0 0 0 0
0 0 0 0 0 0 0 0 0 0 0 0 0 0 0 0 0 0 0 0 0 0 0 0 0 0 0 0 0 0 0 0 0 0 0 0 0 0 0 0 0 0 0
0 0 0 0 0 0 0 0 0 0 0 0 0 0 0 0 0 0 0 0 0 0 0 0 0 0 0 0 0 0 0 0 0 0 0 0 0 0 0 0 0 0 0
0 0 0 0 0 0 0 0 0 0 0 0 0 0 0 0 0 0 0 0 0 0 0 0 0 0 0 0 0 0 0 0 0 0 0 0 0 0 0 0 0 0 0
0 0 0 0 0 0 0 0 0 0 0 0 0 0 0 0 0 0 0 0 0 0 0 0 0 0 0 0 0 0 0 0 0 0 0 0 0 0 0 0 0 0 0
0 0 0 0 0 0 0 0 0 0 0 0 0 0 0 0 0 0 0 0 0 0 0 0 0 0 0 0 0 0 0 0 0 0 0 0 0 0 0 0 0 0 0
0 0 0 0 0 0 0 0 0 0 0 0 0 0 0 0 0 0 0 0 0 0 0 0 0 0 0 0 0 0 0 0 0 0 0 0 0 0 0 0 0 0 0
0 0 0 0 0 0 0 0 0 0 0 0 0 0 0 0 0 0 0 0 0 0 0 0 0 0 0 0 0 0 0 0 0 0 0 0 0 0 0 0 0 0 0
0 0 0 0 0 0 0 0 0 0 0 0 0 0 0 0 0 0 0 0 0 0 0 0 0 0 0 0 0 0 0 0 0 0 0 0 0 0 0 0 0 0 0
Wind_Speed
4 4 4 4 5 5 5 5 5 4 4 5 5 5 5 5 5 5 5 5 6 6 6 6 8 7 6 6 5 6 6 6 8 7 5 4 5 6 5 6 6 6 6
4 4 4 4 4 5 5 5 4 4 5 5 5 5 5 5 5 6 6 6 7 7 7 7 8 6 9 7 6 7 6 7 7 9 6 5 6 6 7 7 6 5 6
3 3 4 4 4 5 5 4 4 4 5 5 5 5 6 6 6 6 6 7 7 7 8 8 8 8 9 7 7 7 6 6 6 7 7 5 5 4 6 6 6 6 6
3 3 4 4 4 4 4 4 4 4 5 5 5 6 6 6 6 6 6 7 7 7 7 8 8 9 9 8 7 8 6 6 6 6 7 5 5 4 5 5 5 5 6
3 3 4 4 3 3 3 3 4 4 5 4 5 5 5 5 5 6 6 6 7 7 7 7 7 8 9 8 6 7 7 6 6 6 6 6 5 4 5 5 6 6 6
3 3 3 3 2 2 3 3 3 4 4 4 4 5 5 5 6 7 6 6 6 7 7 7 7 7 7 9 9 9 9 8 8 7 7 7 8 7 5 5 5 5 6
3 3 3 2 2 3 3 3 3 3 3 4 4 4 5 6 7 8 8 6 6 6 7 6 6 5 7 7 8 9 10 11 11 8 8 8 7 7 6 7 7 7 7
3 3 3 3 3 3 3 3 3 3 3 3 4 4 5 6 7 7 7 6 6 7 7 7 7 7 6 6 6 6 7 8 9 8 7 8 7 7 7 7 7 7 7
3 3 3 3 3 3 3 3 3 3 3 3 4 4 5 6 6 7 6 5 5 6 6 6 7 7 8 8 6 6 6 6 6 7 8 8 8 8 7 5 5 5 6
4 4 3 3 3 4 4 4 3 3 3 3 3 4 4 5 6 7 7 4 5 5 5 5 6 7 7 8 6 6 7 6 5 5 6 7 7 7 7 6 5 5 5
3 3 3 3 3 3 3 3 3 3 3 3 4 4 4 5 6 7 7 4 4 4 4 4 4 7 8 8 7 6 7 6 5 5 4 5 4 4 5 5 5 5 6
3 2 3 3 3 2 2 2 2 2 3 3 3 4 4 4 5 6 7 6 6 5 5 4 4 7 8 9 7 6 7 5 3 3 4 4 4 4 4 4 5 6 6
2 2 3 3 3 2 2 2 2 2 2 3 3 3 4 4 4 6 7 7 7 5 4 6 7 8 7 6 6 6 4 3 3 3 4 4 4 4 4 4 4 4 5
2 2 2 2 2 2 2 2 2 2 2 3 3 4 4 4 4 4 4 4 5 4 4 4 5 6 5 4 3 3 2 2 3 4 4 4 3 3 3 3 4 3 4
2 2 2 2 2 2 2 2 2 3 3 4 4 4 4 5 6 8 6 4 4 3 3 3 3 2 2 2 2 2 2 2 3 3 3 3 3 3 3 3 3 3 4
2 2 2 2 2 2 2 2 3 4 5 6 7 6 5 7 9 9 8 7 6 5 3 3 2 2 3 3 2 2 2 2 3 3 3 3 3 3 3 3 3 4 5
2 2 2 2 2 2 2 2 3 4 4 5 6 7 7 8 8 7 7 6 4 3 2 2 2 2 2 2 2 3 3 3 3 3 3 3 3 3 3 3 3 4 4
2 2 2 2 2 2 3 3 3 3 4 4 5 7 8 7 7 6 6 4 2 1 2 2 2 2 3 3 3 3 3 3 2 3 3 3 3 3 3 3 3 4 4
2 2 2 2 2 2 2 2 2 3 3 4 4 4 6 6 6 5 4 1 1 1 2 2 2 2 3 3 3 3 3 3 3 3 3 3 3 3 3 4 4 5 5
2 2 2 2 2 2 2 2 2 2 3 3 3 4 4 3 3 3 2 1 1 2 2 2 3 3 3 3 3 3 3 2 3 3 3 3 3 3 4 4 4 4 4
2 2 2 2 2 2 2 2 2 2 3 3 3 4 5 3 3 3 2 2 2 2 3 3 3 3 3 3 3 3 3 3 3 3 3 3 3 3 4 4 4 4 4
2 2 2 2 2 2 2 2 2 3 3 4 4 4 5 3 2 3 3 3 3 3 3 3 3 3 3 3 4 3 4 4 3 3 3 3 3 3 3 4 4 4 4
2 2 2 2 2 2 2 2 2 3 3 4 4 3 3 3 3 3 3 3 3 3 3 3 3 4 3 3 4 4 5 4 4 4 4 4 4 4 3 4 5 5 4
2 2 2 2 2 3 3 3 3 3 4 4 4 4 4 3 3 4 4 3 3 3 3 3 4 5 6 5 4 4 4 5 5 4 5 5 5 4 4 4 5 5 5
2 2 2 3 3 3 3 3 4 4 4 4 4 4 4 4 4 4 4 3 4 4 5 4 4 5 6 7 7 5 6 7 6 4 4 4 5 5 5 5 5 4 4
2 3 3 3 3 3 4 4 4 4 4 4 4 4 4 4 4 4 4 4 4 4 5 5 5 6 7 7 8 8 8 7 7 6 5 4 5 5 5 5 5 5 5
Wind_Direction
256 250 245 239 230 229 230 230 230 228 227 228 230 233 235 235 234 233 235 234 235 238 240 242 243 241 240 238 237 238 239 243 257 268 268 267 264 266 269 267 271 272 271
255 253 249 247 234 228 231 233 228 228 230 232 232 233 236 237 237 236 238 240 240 239 240 241 246 244 242 240 237 239 240 241 250 263 268 267 264 268 272 271 273 272 274
261 255 254 249 245 242 236 234 230 229 231 232 233 236 238 239 240 240 242 245 246 246 244 243 246 244 245 242 240 241 242 243 247 256 265 269 272 275 276 275 275 273 274
270 254 254 253 250 250 245 236 233 232 233 234 237 242 244 243 241 242 244 247 249 250 249 249 248 244 246 246 243 242 242 244 246 252 259 263 266 275 273 273 277 272 273
283 266 262 261 255 253 251 246 242 238 238 240 242 247 249 247 243 243 247 250 252 254 255 255 255 254 253 251 249 245 242 243 245 249 254 257 257 260 262 270 271 278 273
289 287 290 283 273 268 263 258 250 248 247 246 246 250 254 256 256 253 254 252 252 254 259 261 260 254 252 252 252 251 247 244 244 246 251 253 256 258 264 265 270 274 275
295 296 298 293 287 280 274 267 264 264 259 258 260 259 263 268 266 261 259 258 256 256 257 259 259 259 254 254 256 254 251 250 249 250 252 255 261 258 261 261 261 264 270
297 300 304 301 295 297 291 284 287 288 276 272 273 273 276 280 277 274 272 264 262 260 257 257 260 261 257 255 257 258 258 255 251 249 254 262 266 269 260 261 264 268 276
305 299 298 295 292 290 287 289 294 296 294 291 288 284 284 289 289 286 282 272 267 266 263 260 256 259 261 256 255 256 262 263 259 254 260 267 275 278 271 264 264 262 270
296 302 306 297 285 282 285 294 301 300 295 301 300 297 295 296 297 294 290 275 271 272 271 264 255 256 261 255 254 254 259 265 267 270 265 268 269 266 260 255 255 256 268
306 308 306 300 292 286 290 301 303 303 303 304 305 306 304 301 299 299 297 289 279 282 278 271 267 261 265 262 260 260 263 273 269 265 265 268 268 264 259 255 253 252 255
307 304 303 301 297 294 293 299 301 297 299 303 307 308 309 307 305 302 299 295 292 283 281 283 276 270 271 268 264 267 274 275 265 262 264 266 268 270 271 267 263 259 257
321 314 310 312 305 298 284 283 291 292 291 298 300 301 308 311 306 302 296 291 284 281 280 283 288 284 276 270 267 268 269 262 257 255 259 266 274 277 280 275 272 268 268
324 316 313 314 311 310 299 285 282 286 289 291 292 293 298 301 303 305 300 297 288 282 282 286 284 285 278 279 278 265 260 262 264 263 269 274 278 275 272 275 277 281 277
314 309 310 308 304 306 306 298 293 291 287 286 287 287 290 292 297 303 304 299 293 287 293 288 280 279 274 271 277 276 270 265 263 267 270 272 271 271 275 279 275 277 273
294 299 296 297 300 304 309 322 320 304 305 299 297 295 295 297 301 301 302 302 301 297 294 274 268 265 268 270 269 273 274 272 274 272 267 266 267 269 274 274 269 268 270
277 284 283 284 288 291 293 297 309 325 325 321 313 308 309 312 310 308 307 304 303 295 274 270 268 268 271 272 268 269 273 276 275 269 267 271 272 271 271 273 271 270 273
282 281 280 280 281 280 282 288 293 301 311 317 323 324 327 328 329 328 322 313 305 302 283 280 277 274 273 271 266 268 273 278 277 276 276 277 275 275 277 278 279 282 284
287 285 289 290 289 287 289 292 295 297 300 306 314 322 330 328 334 349 351 339 303 294 291 288 289 286 284 280 274 272 272 274 279 281 279 277 275 274 275 278 282 282 280
298 303 304 296 296 296 295 294 292 291 295 300 307 315 323 325 326 334 340 318 298 290 293 289 287 282 281 283 278 276 276 275 277 277 281 282 281 279 279 280 281 283 281
304 309 311 298 287 284 285 285 285 283 286 292 298 310 318 314 312 315 313 304 294 288 288 287 286 282 275 277 275 270 270 272 273 274 275 278 279 279 279 279 280 280 284
293 292 296 290 286 283 285 284 285 284 285 287 294 305 313 312 304 301 299 298 296 290 286 283 279 279 272 268 269 266 265 266 267 267 269 271 272 276 277 277 282 287 285
287 291 294 290 287 288 286 282 280 280 284 289 293 298 300 295 292 290 291 296 298 295 292 286 284 283 280 274 270 262 260 263 265 263 266 270 269 268 271 275 277 281 283
286 284 285 288 287 282 280 282 282 281 282 284 286 287 288 288 288 290 293 295 295 292 290 284 280 283 284 280 276 269 265 268 268 259 256 258 265 268 269 270 272 274 273
288 286 283 282 282 282 282 282 280 279 278 279 281 282 283 283 284 287 289 291 292 289 291 288 283 283 285 280 275 274 273 272 267 260 253 252 255 259 263 265 265 269 270
284 281 280 280 277 277 276 277 278 278 276 276 276 277 278 278 280 284 287 287 289 287 288 285 285 288 290 290 286 282 277 269 258 250 246 247 250 254 255 256 259 262 266